sat.trackr.live / text

‹ back to catalog

STARLINK-35958

NORAD 66822 · 2025-280B

PAYLOAD ACTIVE UNKNOWN

§ Identity

Operator
Country
US
Launch date
2025-12-02
Launch site
AFWTR
Launch vehicle
Mass (kg)
RCS (m²)

Purposes: comms

External: N2YO · Heavens-Above · Gunter

§ Orbital elements

Epoch: 2026-05-25T02:42:31.072896Z

Period
96.11 min
Inclination
70.0007°
Eccentricity
0.0003782
Mean motion
14.98327877 rev/d
Perigee alt
569.4 km
Apogee alt
574.7 km
Semi-major
6,950.2 km
B*
2.6451e-4
RAAN
141.7559°
Arg perigee
260.3062°
Mean anomaly
99.7670°
Rev number
2,752

§ Raw data

STARLINK-359581 66822U 25280B   26145.11285964  .00003064  00000+0  26451-3 0  99982 66822  70.0007 141.7559 0003782 260.3062  99.7670 14.98327877 27521

JSON: /api/v1/satellites/66822 · /tle

For live sub-satellite position, see the globe view (requires WebGL).

§ Visibility from observer

Set your observer location to see the next 7 days of passes ≥ 10°. The values pass through the URL so the page stays shareable.

No JS? Fill the form by hand. The geolocation button needs JavaScript.